Location: Moy Burn
(57.3833°N, 4.0667°W)
Time: 11:42:56
(UTC+00:00)

Cosmos 407 Rocket - Pass Details

Date: 08 August 2020
Orbit: 744 x 786 km, 74.0° (Epoch: 22 September)

Event Time Altitude Azimuth Distance (km) Brightness Sun altitude
Rises 22:01:09 0° 215° (SW) 3,262 6.5 -11.2°
Reaches altitude 10° 22:03:33 10° 217° (SW) 2,333 5.8 -11.4°
Maximum altitude 22:08:51 72° 302° (WNW) 819 3.8 -11.8°
Drops below altitude 10° 22:14:08 10° 28° (NNE) 2,323 6.4 -12.2°
Sets 22:16:32 0° 30° (NNE) 3,246 7.2 -12.3°
